EW6288 Weather Reports


Display with metric or nautical units.
time (UTC)temp
F
wind
direction
speed
MPH
gust
MPH
rain 1hr
in
rain 24hr
in
rain mn
in
humidity
%
barometer
mb
20260831225546 86 154 1.0 6.0 0.00 0.00 0.00 77 1013.3
20260831225046 86 155 1.0 6.0 0.00 0.00 0.00 76 1013.3
20260831224818 86 190 1.0 6.0 0.00 0.00 0.00 77 1013.4
20260831224044 86 190 1.0 6.0 0.00 0.00 0.00 77 1013.3
20260831223545 85 108 1.0 6.0 0.00 0.00 0.00 78 1013.4
20260831223539 85 108 1.0 6.0 0.00 0.00 0.00 77 1013.4
20260831222542 85 154 1.0 3.0 0.00 0.00 0.00 78 1013.5
20260831222537 85 136 1.0 3.0 0.00 0.00 0.00 78 1013.4
20260831221533 85 0 0.0 4.0 0.00 0.00 0.00 78 1013.5
20260831221302 84 0 1.0 4.0 0.00 0.00 0.00 78 1013.5
20260831221135 85 0 0.0 4.0 0.00 0.00 0.00 78 1013.5
20260831220024 84 0 1.0 5.0 0.00 0.00 0.00 78 1013.6
20260831215523 84 0 1.0 5.0 0.00 0.00 0.00 79 1013.6
20260831215022 84 0 1.0 5.0 0.00 0.00 0.00 79 1013.7
20260831214519 84 0 1.0 5.0 0.00 0.00 0.00 78 1013.8
20260831214017 84 0 0.0 2.0 0.00 0.00 0.00 78 1013.8
20260831213521 84 0 0.0 2.0 0.00 0.00 0.00 78 1013.8
20260831213015 84 0 1.0 3.0 0.00 0.00 0.00 78 1013.9
20260831212748 85 0 1.0 3.0 0.00 0.00 0.00 78 1014.0
20260831212242 85 0 0.0 3.0 0.00 0.00 0.00 77 1014.1
20260831211511 85 0 0.0 1.0 0.00 0.00 0.00 76 1014.1
20260831211011 85 0 0.0 3.0 0.00 0.00 0.00 77 1014.1
20260831210507 85 0 1.0 3.0 0.00 0.00 0.00 77 1014.2
20260831210008 85 0 1.0 3.0 0.00 0.00 0.00 76 1014.3
20260831205505 85 0 1.0 3.0 0.00 0.00 0.00 75 1014.4
20260831205005 86 0 1.0 3.0 0.00 0.00 0.00 75 1014.5
20260831204501 86 0 1.0 3.0 0.00 0.00 0.00 75 1014.5
20260831203959 85 70 1.0 3.0 0.00 0.00 0.00 75 1014.6
20260831203729 86 74 1.0 3.0 0.00 0.00 0.00 78 1014.5
20260831202959 86 123 1.0 6.0 0.00 0.00 0.00 76 1014.6
20260831202457 86 158 1.0 6.0 0.00 0.00 0.00 76 1014.7
20260831202226 87 112 1.0 3.0 0.00 0.00 0.00 75 1014.8
20260831201454 87 148 1.0 5.0 0.00 0.00 0.00 75 1014.7
20260831200955 87 154 1.0 5.0 0.00 0.00 0.00 75 1014.8
20260831200455 87 66 1.0 5.0 0.00 0.00 0.00 77 1014.8
20260831195954 88 138 2.0 5.0 0.00 0.00 0.00 75 1014.8
20260831195455 88 157 2.0 8.0 0.00 0.00 0.00 77 1014.8
20260831194946 89 90 2.0 10.0 0.00 0.00 0.00 75 1014.8
20260831194446 89 155 3.0 10.0 0.00 0.00 0.00 76 1014.8
20260831193943 90 144 4.0 11.0 0.00 0.00 0.00 74 1014.9
20260831193442 89 142 4.0 11.0 0.00 0.00 0.00 73 1015.0
20260831192939 89 182 3.0 11.0 0.00 0.00 0.00 73 1015.0
20260831192439 88 138 3.0 10.0 0.00 0.00 0.00 74 1015.2
20260831191939 89 136 2.0 6.0 0.00 0.00 0.00 74 1015.1
20260831191438 89 71 1.0 4.0 0.00 0.00 0.00 74 1015.1
20260831190937 88 68 0.0 2.0 0.00 0.00 0.00 74 1015.0
20260831190436 88 68 1.0 2.0 0.00 0.00 0.00 75 1015.1
20260831185930 89 69 1.0 5.0 0.00 0.00 0.00 74 1015.2
20260831185430 90 114 1.0 5.0 0.00 0.00 0.00 73 1015.2
20260831184931 90 23 1.0 5.0 0.00 0.00 0.00 71 1015.3
20260831184431 90 163 1.0 5.0 0.00 0.00 0.00 70 1015.3
20260831183929 90 111 1.0 3.0 0.00 0.00 0.00 70 1015.4
20260831183430 91 138 1.0 5.0 0.00 0.00 0.00 68 1015.4
20260831182930 91 138 2.0 5.0 0.00 0.00 0.00 66 1015.4
20260831182430 92 152 1.0 4.0 0.00 0.00 0.00 67 1015.5
20260831182201 90 175 1.0 4.0 0.00 0.00 0.00 75 1015.6
20260831181424 90 138 1.0 5.0 0.00 0.00 0.00 70 1015.6
20260831180924 89 137 1.0 5.0 0.00 0.00 0.00 75 1015.8
20260831180425 90 325 1.0 4.0 0.00 0.00 0.00 72 1015.8
20260831175929 89 334 1.0 4.0 0.00 0.00 0.00 73 1015.8
20260831175425 89 202 1.0 3.0 0.00 0.00 0.00 73 1016.0
20260831174925 89 196 1.0 3.0 0.00 0.00 0.00 73 1015.9
20260831174427 89 197 1.0 4.0 0.00 0.00 0.00 71 1015.9
20260831173927 89 193 1.0 4.0 0.00 0.00 0.00 72 1016.0
20260831173426 89 253 1.0 4.0 0.00 0.00 0.00 72 1016.0
20260831172924 90 254 1.0 4.0 0.00 0.00 0.00 69 1016.1
20260831172655 91 49 1.0 6.0 0.00 0.00 0.00 69 1016.1
20260831171926 92 49 1.0 6.0 0.00 0.00 0.00 67 1016.2
20260831171426 91 5 2.0 6.0 0.00 0.00 0.00 69 1016.2
20260831170926 89 157 2.0 6.0 0.00 0.00 0.00 72 1016.2
20260831170426 90 102 1.0 6.0 0.00 0.00 0.00 73 1016.2
20260831170159 90 350 1.0 6.0 0.00 0.00 0.00 70 1016.2
20260831165427 90 355 0.0 3.0 0.00 0.00 0.00 69 1016.3
20260831164922 90 139 0.0 2.0 0.00 0.00 0.00 70 1016.4
20260831164652 89 138 1.0 5.0 0.00 0.00 0.00 71 1016.3
20260831164154 90 138 1.0 5.0 0.00 0.00 0.00 71 1016.4
20260831163422 90 138 1.0 5.0 0.00 0.00 0.00 68 1016.4
20260831162921 90 140 1.0 5.0 0.00 0.00 0.00 71 1016.3
20260831162652 90 343 1.0 4.0 0.00 0.00 0.00 73 1016.3
20260831162151 90 55 1.0 3.0 0.00 0.00 0.00 71 1016.3
20260831161420 89 277 1.0 3.0 0.00 0.00 0.00 74 1016.3
20260831160920 89 122 1.0 3.0 0.00 0.00 0.00 73 1016.4
20260831160420 88 164 1.0 5.0 0.00 0.00 0.00 73 1016.4
20260831160416 89 155 1.0 3.0 0.00 0.00 0.00 72 1016.4
20260831155416 88 163 0.0 5.0 0.00 0.00 0.00 73 1016.5
20260831154918 88 163 1.0 5.0 0.00 0.00 0.00 73 1016.4
20260831154416 87 163 1.0 5.0 0.00 0.00 0.00 73 1016.5
20260831153915 87 153 1.0 4.0 0.00 0.00 0.00 75 1016.5
20260831153417 86 140 1.0 4.0 0.00 0.00 0.00 75 1016.6
20260831152916 85 100 1.0 3.0 0.00 0.00 0.00 79 1016.5
20260831152418 84 93 1.0 4.0 0.00 0.00 0.00 80 1016.5
20260831151913 84 145 1.0 4.0 0.00 0.00 0.00 81 1016.5
20260831151411 83 144 1.0 4.0 0.00 0.00 0.00 81 1016.5
20260831150911 83 144 1.0 4.0 0.00 0.00 0.00 81 1016.5
20260831150413 83 185 0.0 2.0 0.00 0.00 0.00 82 1016.4
20260831145910 82 184 0.0 2.0 0.00 0.00 0.00 84 1016.4
20260831145408 82 184 0.0 2.0 0.00 0.00 0.00 85 1016.3
20260831144907 82 184 0.0 2.0 0.00 0.00 0.00 86 1016.2
20260831144404 82 184 0.0 2.0 0.00 0.00 0.00 87 1016.2
20260831143904 82 184 0.0 2.0 0.00 0.00 0.00 87 1016.2
20260831143405 82 183 0.0 2.0 0.00 0.00 0.00 87 1016.2
20260831143400 82 183 0.0 2.0 0.00 0.00 0.00 87 1016.2
20260831142357 82 183 0.0 2.0 0.00 0.00 0.00 88 1016.3
20260831141856 81 183 1.0 2.0 0.00 0.00 0.00 88 1016.2
20260831141355 81 183 1.0 2.0 0.00 0.00 0.00 88 1016.2
20260831140851 81 183 0.0 2.0 0.00 0.00 0.00 88 1016.2
20260831140350 81 183 0.0 2.0 0.00 0.00 0.00 88 1016.2
20260831135849 81 182 0.0 2.0 0.00 0.00 0.00 88 1016.0
20260831135620 81 0 1.0 3.0 0.00 0.00 0.00 88 1016.0
20260831134846 81 0 1.0 3.0 0.00 0.00 0.00 88 1016.0
20260831134617 80 0 0.0 2.0 0.00 0.00 0.00 88 1016.0
20260831133844 80 0 0.0 2.0 0.00 0.00 0.00 88 1016.0
20260831133346 80 0 0.0 1.0 0.00 0.00 0.00 87 1016.0
20260831132841 80 0 0.0 1.0 0.00 0.00 0.00 87 1015.9
20260831132343 80 0 0.0 1.0 0.00 0.00 0.00 87 1015.8
20260831131843 80 0 0.0 1.0 0.00 0.00 0.00 87 1015.8
20260831131337 79 0 0.0 1.0 0.00 0.00 0.00 87 1015.7
20260831130840 79 0 0.0 1.0 0.00 0.00 0.00 87 1015.6
20260831130337 79 0 0.0 1.0 0.00 0.00 0.00 87 1015.6
20260831125836 79 0 0.0 1.0 0.00 0.00 0.00 87 1015.5
20260831125338 79 0 0.0 0.0 0.00 0.00 0.00 86 1015.5
20260831124834 79 0 0.0 0.0 0.00 0.00 0.00 86 1015.5
20260831124336 79 0 0.0 0.0 0.00 0.00 0.00 86 1015.5
20260831123835 79 0 0.0 0.0 0.00 0.00 0.00 86 1015.5
20260831123333 79 0 0.0 0.0 0.00 0.00 0.00 86 1015.5
20260831122833 79 0 0.0 0.0 0.00 0.00 0.00 86 1015.3
20260831122330 79 0 0.0 0.0 0.00 0.00 0.00 86 1015.1
20260831121831 79 0 0.0 0.0 0.00 0.00 0.00 85 1015.1
20260831121322 79 0 0.0 0.0 0.00 0.00 0.00 85 1015.0
20260831120822 79 0 0.0 0.0 0.00 0.00 0.00 85 1014.9
20260831120555 79 0 0.0 0.0 0.00 0.00 0.00 85 1014.9
20260831115820 79 0 0.0 0.0 0.00 0.00 0.00 85 1014.9
20260831115320 79 0 0.0 0.0 0.00 0.00 0.00 85 1014.8
20260831115050 79 0 0.0 0.0 0.00 0.00 0.00 85 1014.8
20260831114320 79 0 0.0 0.0 0.00 0.00 0.00 85 1014.8
20260831113819 79 0 0.0 0.0 0.00 0.00 0.00 85 1014.8
20260831113315 80 0 0.0 0.0 0.00 0.00 0.00 85 1014.7
20260831112815 80 0 0.0 0.0 0.00 0.00 0.00 85 1014.7
20260831112309 80 0 0.0 0.0 0.00 0.00 0.00 85 1014.7
20260831111813 80 0 0.0 0.0 0.00 0.00 0.00 85 1014.8
20260831111306 80 0 0.0 0.0 0.00 0.00 0.00 85 1014.7
20260831110807 80 0 0.0 0.0 0.00 0.00 0.00 84 1014.8
20260831110306 80 0 0.0 0.0 0.00 0.00 0.00 84 1014.8
20260831105804 80 0 0.0 0.0 0.00 0.00 0.00 84 1014.8
20260831105307 80 0 0.0 0.0 0.00 0.00 0.00 84 1014.6
20260831104305 80 0 0.0 1.0 0.00 0.00 0.00 84 1014.8
20260831103759 80 0 0.0 1.0 0.00 0.00 0.00 84 1014.8
20260831103245 80 0 0.0 0.0 0.00 0.00 0.00 84 1014.8
20260831102746 80 0 0.0 0.0 0.00 0.00 0.00 84 1014.8
20260831102247 80 0 0.0 0.0 0.00 0.00 0.00 84 1014.9
20260831101742 80 0 0.0 0.0 0.00 0.00 0.00 84 1014.8
20260831101242 80 0 0.0 1.0 0.00 0.00 0.00 84 1014.8
20260831101013 80 0 0.0 1.0 0.00 0.00 0.00 84 1014.8
20260831100512 81 0 0.0 1.0 0.00 0.00 0.00 84 1014.8
20260831095740 81 0 0.0 1.0 0.00 0.00 0.00 84 1014.8
20260831095242 81 0 0.0 0.0 0.00 0.00 0.00 84 1014.8
20260831094741 81 0 0.0 0.0 0.00 0.00 0.00 84 1014.8
20260831094239 81 0 0.0 0.0 0.00 0.00 0.00 84 1014.7
20260831093739 81 0 0.0 0.0 0.00 0.00 0.00 84 1014.6
20260831093241 81 0 0.0 0.0 0.00 0.00 0.00 84 1014.7
20260831092739 81 0 0.0 0.0 0.00 0.00 0.00 84 1014.6
20260831092512 81 0 0.0 0.0 0.00 0.00 0.00 84 1014.6
20260831091737 81 0 0.0 0.0 0.00 0.00 0.00 84 1014.5
20260831091238 81 0 0.0 0.0 0.00 0.00 0.00 84 1014.6
20260831090738 81 0 0.0 0.0 0.00 0.00 0.00 84 1014.6
20260831090236 81 0 0.0 0.0 0.00 0.00 0.00 84 1014.6
20260831085735 81 0 0.0 0.0 0.00 0.00 0.00 83 1014.7
20260831085236 81 0 0.0 0.0 0.00 0.00 0.00 83 1014.8
20260831084736 81 0 0.0 1.0 0.00 0.00 0.00 83 1014.9
20260831084238 81 0 0.0 1.0 0.00 0.00 0.00 83 1014.8
20260831083737 81 0 0.0 1.0 0.00 0.00 0.00 83 1014.8
20260831083238 81 0 0.0 1.0 0.00 0.00 0.00 83 1014.8
20260831082736 81 0 0.0 1.0 0.00 0.00 0.00 83 1014.8
20260831082236 81 0 0.0 1.0 0.00 0.00 0.00 83 1014.8
20260831082006 81 0 0.0 1.0 0.00 0.00 0.00 83 1014.8
20260831081233 81 0 0.0 1.0 0.00 0.00 0.00 82 1014.8
20260831080733 82 0 0.0 1.0 0.00 0.00 0.00 82 1014.8
20260831080234 82 0 0.0 2.0 0.00 0.00 0.00 82 1014.9
20260831075733 82 0 0.0 2.0 0.00 0.00 0.00 82 1014.9
20260831075229 82 0 0.0 1.0 0.00 0.00 0.00 82 1014.9
20260831074730 82 0 0.0 1.0 0.00 0.00 0.00 82 1014.9
20260831074229 82 0 0.0 1.0 0.00 0.00 0.00 82 1014.9
20260831073727 82 0 0.0 1.0 0.00 0.00 0.00 82 1014.9
20260831073230 82 0 0.0 1.0 0.00 0.00 0.00 82 1014.9
20260831072728 82 0 0.0 1.0 0.00 0.00 0.00 82 1014.9
20260831072227 82 0 0.0 1.0 0.00 0.00 0.00 82 1014.8
20260831071731 82 0 0.0 1.0 0.00 0.00 0.00 82 1014.9
20260831071227 82 0 0.0 1.0 0.00 0.00 0.00 82 1014.9
20260831071002 82 0 0.0 1.0 0.00 0.00 0.00 82 1014.9
20260831070225 82 0 0.0 1.0 0.00 0.00 0.00 82 1014.9
20260831065725 82 0 0.0 1.0 0.00 0.00 0.00 82 1015.0
20260831065226 83 0 0.0 1.0 0.00 0.00 0.00 81 1015.1
20260831064727 83 0 0.0 1.0 0.00 0.00 0.00 81 1015.1
20260831064227 83 0 0.0 1.0 0.00 0.00 0.00 81 1015.1
20260831063726 83 0 0.0 1.0 0.00 0.00 0.00 81 1015.2
20260831063454 83 0 0.0 2.0 0.00 0.00 0.00 81 1015.1
20260831062719 83 0 0.0 2.0 0.00 0.00 0.00 81 1015.2
20260831062219 83 0 0.0 2.0 0.00 0.00 0.00 81 1015.2
20260831061719 83 0 0.0 2.0 0.00 0.00 0.00 81 1015.2
20260831061449 83 0 0.0 2.0 0.00 0.00 0.00 81 1015.3
20260831060722 83 0 1.0 2.0 0.00 0.00 0.00 81 1015.3
20260831060220 83 0 0.0 3.0 0.00 0.00 0.00 80 1015.2
20260831055719 83 0 0.0 3.0 0.00 0.00 0.00 81 1015.2
20260831055449 84 0 0.0 3.0 0.00 0.00 0.00 81 1015.2
20260831054721 84 0 0.0 3.0 0.00 0.00 0.00 81 1015.2
20260831054446 84 0 1.0 3.0 0.00 0.00 0.00 80 1015.3
20260831053715 84 0 1.0 3.0 0.00 0.00 0.00 80 1015.2
20260831053214 84 0 1.0 3.0 0.00 0.00 0.00 80 1015.2
20260831052714 84 0 1.0 3.0 0.00 0.00 0.00 80 1015.2
20260831052212 84 0 1.0 3.0 0.00 0.00 0.00 80 1015.2
20260831051711 84 0 1.0 5.0 0.00 0.00 0.00 80 1015.2
20260831051210 84 0 1.0 5.0 0.00 0.00 0.00 80 1015.1
20260831050710 84 0 1.0 5.0 0.00 0.00 0.00 80 1015.1
20260831050208 84 0 1.0 5.0 0.00 0.00 0.00 79 1015.0
20260831045708 84 0 0.0 2.0 0.00 0.00 0.00 80 1015.0
20260831045205 85 0 0.0 3.0 0.00 0.00 0.00 79 1015.0
20260831044705 85 0 0.0 3.0 0.00 0.00 0.00 79 1015.0
20260831044203 85 0 0.0 3.0 0.00 0.00 0.00 79 1015.0
20260831044048 85 0 1.0 3.0 0.00 0.00 0.00 79 1014.9
20260831043938 85 0 0.0 3.0 0.00 0.00 0.00 79 1014.9
20260831042658 85 0 1.0 3.0 0.00 0.00 0.00 79 1014.9
20260831042159 85 0 0.0 3.0 0.00 0.00 0.00 78 1014.9
20260831041654 86 0 0.0 4.0 0.00 0.00 0.00 78 1014.8
20260831041153 86 0 1.0 4.0 0.00 0.00 0.00 78 1014.9
20260831040651 86 0 1.0 5.0 0.00 0.00 0.00 78 1014.8
20260831040153 86 0 1.0 5.0 0.00 0.00 0.00 78 1014.8
20260831035649 86 0 1.0 3.0 0.00 0.00 0.00 78 1014.8
20260831035142 86 0 1.0 3.0 0.00 0.00 0.00 77 1014.8
20260831034640 86 0 1.0 3.0 0.00 0.00 0.00 77 1014.8
20260831034140 87 0 1.0 4.0 0.00 0.00 0.00 77 1014.7
20260831033638 87 0 1.0 5.0 0.00 0.00 0.00 77 1014.7
20260831033137 87 0 2.0 5.0 0.00 0.00 0.00 76 1014.6
20260831032907 87 0 1.0 8.0 0.00 0.00 0.00 76 1014.5
20260831032754 87 0 1.0 8.0 0.00 0.00 0.00 76 1014.5
20260831031636 87 0 2.0 8.0 0.00 0.00 0.00 76 1014.5
20260831031131 87 0 2.0 8.0 0.00 0.00 0.00 76 1014.4
20260831030631 87 0 1.0 4.0 0.00 0.00 0.00 75 1014.4
20260831030124 87 0 2.0 5.0 0.00 0.00 0.00 75 1014.3
20260831025623 87 0 2.0 5.0 0.00 0.00 0.00 74 1014.2
20260831025123 88 0 2.0 5.0 0.00 0.00 0.00 74 1014.1
20260831024620 88 0 1.0 4.0 0.00 0.00 0.00 73 1014.1
20260831024119 88 0 2.0 4.0 0.00 0.00 0.00 73 1014.0
20260831023618 88 0 2.0 5.0 0.00 0.00 0.00 73 1013.9
20260831023353 88 0 2.0 5.0 0.00 0.00 0.00 72 1013.9
20260831022621 88 0 2.0 9.0 0.00 0.00 0.00 72 1013.8
20260831022117 89 0 3.0 9.0 0.00 0.00 0.00 72 1013.8
20260831021845 89 0 2.0 9.0 0.00 0.00 0.00 71 1013.7
20260831021115 89 0 2.0 9.0 0.00 0.00 0.00 71 1013.6
20260831020616 89 0 2.0 9.0 0.00 0.00 0.00 70 1013.5
20260831020115 89 0 2.0 9.0 0.00 0.00 0.00 69 1013.4
20260831015615 89 0 2.0 9.0 0.00 0.00 0.00 69 1013.4
20260831015116 89 0 2.0 9.0 0.00 0.00 0.00 68 1013.4
20260831014841 90 0 2.0 8.0 0.00 0.00 0.00 67 1013.4
20260831014112 90 0 2.0 8.0 0.00 0.00 0.00 67 1013.4
20260831013842 90 0 2.0 6.0 0.00 0.00 0.00 66 1013.4
20260831013110 90 0 2.0 6.0 0.00 0.00 0.00 66 1013.4
20260831012610 90 0 1.0 6.0 0.00 0.00 0.00 65 1013.3
20260831012342 91 0 2.0 10.0 0.00 0.00 0.00 65 1013.3
20260831011610 91 0 2.0 10.0 0.00 0.00 0.00 65 1013.3
20260831011108 91 0 3.0 10.0 0.00 0.00 0.00 64 1013.3
20260831010609 91 0 3.0 10.0 0.00 0.00 0.00 64 1013.2
20260831010109 92 0 2.0 8.0 0.00 0.00 0.00 63 1013.2
20260831005609 92 0 2.0 8.0 0.00 0.00 0.00 62 1013.3
20260831005109 92 0 2.0 8.0 0.00 0.00 0.00 62 1013.1
20260831004615 93 0 3.0 8.0 0.00 0.00 0.00 60 1013.1
20260831004611 92 0 2.0 6.0 0.00 0.00 0.00 61 1013.2
20260831003602 93 121 3.0 12.0 0.00 0.00 0.00 60 1013.1
20260831003103 93 151 3.0 12.0 0.00 0.00 0.00 59 1013.1
20260831002603 93 108 4.0 13.0 0.00 0.00 0.00 58 1013.0
20260831002335 94 170 3.0 13.0 0.00 0.00 0.00 58 1013.0
20260831001603 94 156 3.0 10.0 0.00 0.00 0.00 57 1013.0
20260831001334 94 169 3.0 10.0 0.00 0.00 0.00 56 1012.9
20260831000603 94 122 3.0 10.0 0.00 0.00 0.00 55 1013.0
20260831000103 94 113 3.0 10.0 0.00 0.00 0.00 54 1012.9
20260830235556 95 178 2.0 10.0 0.00 0.00 0.00 54 1012.9
20260830235326 95 139 3.0 10.0 0.00 0.00 0.00 54 1012.9
20260830234558 95 144 2.0 10.0 0.00 0.00 0.00 53 1012.8
20260830234057 95 139 2.0 11.0 0.00 0.00 0.00 54 1012.8
20260830233558 95 120 3.0 11.0 0.00 0.00 0.00 53 1012.8
20260830233056 95 190 3.0 11.0 0.00 0.00 0.00 55 1012.7
20260830232556 95 172 3.0 11.0 0.00 0.00 0.00 55 1012.7
20260830232056 95 132 2.0 10.0 0.00 0.00 0.00 53 1012.7
20260830231557 96 234 3.0 10.0 0.00 0.00 0.00 53 1012.5
20260830231052 96 135 3.0 10.0 0.00 0.00 0.00 53 1012.5
20260830230555 96 117 2.0 9.0 0.00 0.00 0.00 52 1012.6
20260830230053 96 154 2.0 8.0 0.00 0.00 0.00 51 1012.7